SCP
0 0 -0 -0 -0 -0 -0 -0 -0 -0 -0 -0 -0 -0 0 0 0 0 0 0 0 0 0 0 0 0 0 0 0 0 0 0 0 0 0 0 0 0 0 0 0 0 0
-0 0 -0 -0 -0 -0 -0 -0 -0 -0 -0 0 0 0 0 0 0 0 0 0 0 0 0 0 0 0 0 0 0 0 0 0 0 0 0 0 0 0 0 0 0 0 0
0 0 0 -0 -0 -0 -0 -0 -0 -0 -0 0 0 0 0 0 0 0 0 0 0 0 0 0 0 0 0 0 0 0 0 0 0 0 0 0 0 0 0 0 0 0 0
-0 0 0 -0 -0 -0 -0 -0 -0 0 0 0 0 0 0 0 0 0 0 0 0 0 0 0 0 0 0 0 0 0 0 0 0 0 0 0 0 0 0 0 0 0 0
0 0 0 -0 -0 -0 -0 0 0 0 0 0 0 0 0 0 0 0 0 0 0 0 0 0 0 0 0 0 0 0 0 0 0 0 0 0 0 0 0 0 0 0 0
0 -0 0 -0 -0 -0 -0 0 0 0 0 0 0 0 0 0 0 0 0 0 0 0 0 0 0 0 0 0 0 0 0 0 0 0 0 0 0 0 0 0 0 0 0
-0 -0 -0 -0 -0 -0 0 0 0 0 0 0 0 0 0 0 0 0 0 0 0 0 0 0 0 0 0 0 0 0 0 0 0 0 0 0 0 0 0 0 0 0 0
-0 -0 0 0 0 0 0 0 0 0 0 0 0 0 0 0 0 0 0 0 0 0 0 0 0 0 0 0 0 0 0 0 0 0 0 0 0 0 0 0 0 0 0
0 0 -0 -0 0 0 -0 0 0 0 0 0 0 -0 -0 -0 0 0 0 0 0 0 0 0 0 0 0 0 0 0 0 0 0 0 0 0 0 0 0 0 0 0 0
0 -0 0 0 0 0 0 0 0 0 0 0 -0 -0 -0 -0 -0 -0 0 0 0 0 0 0 0 0 0 0 0 0 0 0 0 0 0 0 0 0 0 0 0 0 0
0 -0 0 0 0 0 0 0 0 0 0 0 0 0 0 0 0 0 0 0 0 0 0 0 0 0 0 0 0 0 0 0 0 0 0 0 0 0 0 0 0 0 0
-0 0 0 0 0 0 0 0 0 0 0 0 0 0 0 0 0 0 0 0 0 0 0 0 0 0 0 0 0 0 0 0 0 0 0 0 0 0 0 0 0 0 0
0 0 0 0 0 0 0 0 0 0 0 0 0 0 0 0 0 0 0 0 0 0 0 0 0 0 0 0 0 0 0 0 0 0 0 0 0 0 0 0 0 0 0
0 0 0 0 0 0 0 0 0 0 0 0 0 0 0 0 0 0 0 0 0 0 0 0 0 0 0 0 0 0 0 0 0 0 0 0 0 0 0 0 0 0 0
0 0 0 0 0 0 0 0 0 0 0 0 0 0 0 0 0 0 0 0 0 0 0 0 0 0 0 0 0 0 0 0 0 0 0 0 0 0 0 0 0 0 0
0 0 0 0 0 0 0 0 0 -0 -0 0 0 0 0 0 0 0 0 0 0 0 0 0 0 0 0 0 0 0 0 0 0 0 0 0 0 0 0 0 0 0 0
0 0 0 0 0 0 0 -0 -0 -0 -0 0 0 0 0 0 0 0 0 0 0 0 0 0 0 0 0 0 -0 0 0 0 0 0 0 0 -0 0 0 0 0 0 0
0 0 0 0 0 0 0 -0 -0 -0 -0 -0 0 0 0 0 0 0 0 0 0 0 0 0 0 0 0 0 0 0 0 0 0 0 0 0 0 0 0 0 0 0 0
0 0 0 0 0 -0 -0 -0 -0 -0 -0 0 0 0 0 0 0 0 0 0 0 0 0 0 0 0 0 0 0 0 0 0 0 0 0 0 0 0 0 -0 -0 0 0
0 0 0 0 0 -0 -0 -0 -0 0 -0 0 0 0 0 0 0 0 0 0 0 0 0 0 0 0 0 0 0 0 0 0 0 0 0 0 0 0 0 0 0 0 0
0 0 0 0 0 0 -0 -0 -0 0 0 0 0 0 0 0 0 0 0 0 0 0 0 0 0 0 0 0 0 0 0 0 0 0 0 0 0 0 0 0 0 0 0
0 0 0 0 0 0 -0 -0 -0 -0 -0 -0 0 0 0 0 0 0 0 0 0 0 0 0 0 0 0 0 0 0 0 0 0 0 0 0 0 -0 -0 -0 0 0 0
0 0 0 0 0 0 0 -0 -0 -0 -0 0 0 0 0 0 0 0 0 0 0 0 0 0 0 0 0 0 0 0 0 0 0 0 0 0 0 -0 -0 0 0 0 0
0 0 0 0 0 0 0 0 0 0 -0 -0 -0 -0 0 0 0 0 0 0 0 0 0 0 0 0 0 0 0 0 0 0 0 0 0 0 0 -0 -0 -0 -0 -0 0
0 0 0 0 0 0 0 0 0 -0 -0 -0 -0 0 0 -0 0 -0 -0 -0 0 0 0 0 0 0 0 0 0 0 0 0 0 0 0 -0 0 0 -0 -0 -0 -0 0
0 0 0 0 0 0 0 0 0 0 -0 -0 0 0 -0 -0 -0 0 -0 -0 -0 0 0 0 0 0 0 0 0 0 0 0 0 0 0 0 -0 0 0 -0 -0 -0 -0
Wind_Speed_500mb
25 29 27 28 27 27 27 29 29 31 30 32 34 37 30 28 26 29 33 36 34 33 32 30 30 28 28 30 28 28 34 33 26 19 24 26 27 21 16 17 17 17 14
29 29 30 30 30 30 30 31 31 32 33 34 36 38 37 37 35 30 29 37 39 38 38 37 34 31 33 34 36 32 32 39 40 32 32 28 23 20 20 19 17 15 18
24 28 32 35 37 39 38 38 37 37 36 37 37 40 41 42 43 42 37 30 40 41 42 43 41 38 32 36 37 40 35 34 35 37 31 27 22 20 19 9 14 17 16
25 29 35 40 42 44 44 44 44 41 40 40 40 41 42 45 47 49 50 48 39 38 44 46 47 45 39 38 39 35 36 34 33 34 29 23 22 24 20 20 20 23 21
27 33 41 46 48 49 47 46 45 44 43 42 40 41 43 45 48 51 54 55 55 50 42 46 48 48 48 41 39 37 36 34 29 32 28 25 23 26 27 26 24 31 29
32 38 43 47 46 43 39 36 35 35 36 38 42 44 42 46 51 53 56 60 62 60 57 47 47 49 52 50 44 41 43 42 39 38 35 33 34 31 33 33 29 29 34
35 41 44 45 43 41 41 41 40 40 41 42 42 41 43 45 45 49 53 58 63 66 63 56 49 50 50 54 53 51 47 48 52 48 44 43 42 40 38 39 35 30 35
39 41 41 41 42 43 42 41 42 42 43 43 45 47 44 39 41 47 52 54 59 63 67 67 68 57 50 52 55 59 56 49 46 52 51 49 45 46 44 43 36 31 36
37 37 39 41 42 42 43 44 44 44 42 40 42 46 51 52 50 44 45 54 60 64 68 69 70 72 60 53 53 56 57 57 48 43 47 51 49 49 48 45 41 42 35
34 38 37 37 38 39 42 43 41 40 41 43 45 48 51 53 54 57 55 49 51 61 66 72 68 72 69 64 55 52 53 54 49 44 42 45 47 51 51 47 44 46 42
34 38 39 38 37 37 36 33 31 32 33 34 37 39 41 45 50 53 56 57 57 50 59 65 69 63 61 63 57 55 53 52 50 46 36 39 42 51 50 53 48 42 41
36 37 36 34 32 30 26 22 24 29 30 33 37 37 42 49 53 57 55 54 52 51 46 47 46 52 56 62 39 60 53 55 53 51 50 36 45 51 50 48 45 43 43
35 32 31 30 30 27 26 26 29 31 32 41 41 41 50 53 52 58 62 59 54 50 47 37 32 32 31 42 45 40 55 55 56 52 47 55 50 55 58 55 48 50 50
28 27 27 29 27 26 26 28 29 31 35 44 46 49 56 61 68 60 54 61 58 50 44 27 20 17 21 18 40 51 36 60 47 49 43 51 51 53 58 62 57 52 54
22 23 25 25 24 24 27 28 31 38 37 44 44 51 56 61 67 63 61 58 58 55 44 31 16 8 14 21 17 25 31 31 43 45 36 47 41 45 51 59 65 58 56
19 19 20 20 22 24 26 30 38 39 42 41 47 51 53 58 60 62 63 58 57 54 47 43 26 16 12 26 26 26 33 34 38 39 32 34 43 47 54 65 65 58 57
16 18 14 17 22 23 28 34 40 44 45 50 53 52 56 62 56 57 59 58 55 49 39 38 33 24 28 22 24 20 24 32 40 49 60 54 41 67 67 62 71 63 59
13 15 14 18 21 25 27 32 35 39 43 46 49 52 54 55 55 55 54 54 54 54 45 29 19 22 22 20 14 11 21 28 31 27 27 49 40 37 48 54 68 68 64
8 13 13 16 19 22 28 33 36 37 41 45 48 50 50 47 49 51 51 49 47 44 42 38 34 29 31 24 21 16 12 22 29 35 38 40 39 43 44 53 73 71 64
3 8 12 16 18 21 24 26 29 37 45 46 47 47 47 48 48 48 47 48 48 46 44 36 33 31 32 33 28 25 14 14 13 13 18 25 21 38 38 41 52 66 62
7 7 12 17 18 17 19 25 30 35 36 37 39 39 40 42 43 44 46 45 48 51 53 50 47 48 43 40 30 18 20 11 13 12 19 27 35 39 32 24 23 45 54
14 17 22 24 26 23 22 24 28 28 31 33 34 36 39 42 43 45 46 48 46 45 46 49 52 52 53 53 47 30 25 18 29 21 31 36 46 47 44 43 46 37 48
21 26 27 25 24 20 20 22 21 21 23 26 35 40 45 45 48 50 51 51 50 51 54 55 54 53 52 48 50 35 19 18 52 27 43 53 55 56 56 53 46 44 43
29 31 26 22 19 16 16 14 11 16 27 39 39 38 38 43 47 49 51 51 50 50 52 55 55 55 53 55 48 39 20 21 25 26 46 59 60 63 61 57 58 56 48
36 32 26 19 17 13 9 12 15 23 30 31 29 30 39 45 48 50 51 50 51 52 51 49 49 51 52 50 49 47 48 43 50 27 32 60 65 60 65 58 62 58 55
41 36 28 22 17 12 9 14 17 20 23 23 27 33 41 45 47 49 51 52 52 52 53 53 51 52 53 52 49 48 49 45 42 41 56 67 66 70 58 54 57 52 42
Wind_Direction_500mb
342 346 343 341 339 331 325 318 313 306 301 294 291 290 289 279 292 295 290 291 288 283 283 282 279 274 256 257 261 249 239 240 236 237 241 263 271 265 230 194 183 175 175
339 335 336 336 333 327 323 317 313 307 300 296 291 290 289 283 277 280 290 278 284 280 276 278 279 280 256 258 255 257 247 241 241 247 247 260 262 242 206 195 191 177 188
331 331 333 332 331 327 323 318 313 308 302 295 291 288 285 281 277 275 270 280 276 281 274 272 273 276 265 253 264 256 249 243 235 231 235 243 249 222 200 218 191 211 211
329 330 331 331 329 326 323 318 315 312 306 300 295 290 285 282 278 276 274 270 270 277 275 269 268 269 270 254 257 248 244 244 230 235 231 223 234 218 201 204 206 217 220
326 331 330 330 329 327 326 324 321 317 317 314 305 296 289 283 278 274 270 267 264 263 265 270 263 264 264 262 254 248 246 232 228 229 232 234 235 226 213 224 223 220 221
327 327 331 327 324 322 319 318 317 321 321 318 318 316 305 295 290 283 278 274 269 264 262 260 265 260 257 256 255 251 246 244 241 239 237 237 238 235 229 227 233 225 219
325 328 325 326 331 339 347 348 344 342 336 333 325 319 315 311 303 293 285 278 275 274 266 260 260 263 254 256 252 251 252 250 248 249 246 241 240 238 238 239 235 236 221
326 325 327 337 346 350 350 344 344 341 339 334 331 331 329 325 314 301 293 285 277 273 273 269 255 253 252 250 253 253 247 251 249 247 243 240 238 239 239 237 231 239 228
321 328 341 345 347 349 347 348 347 345 343 344 345 345 342 341 335 325 308 294 285 276 267 265 264 254 254 250 248 255 255 255 246 254 245 238 237 234 236 235 236 243 245
330 339 343 350 354 352 352 351 349 346 345 344 339 335 335 334 334 332 327 314 293 282 276 268 260 256 256 251 246 251 255 254 257 253 253 240 235 229 234 238 241 249 247
341 348 353 352 350 348 349 347 342 342 341 338 337 338 341 342 337 329 325 320 317 306 283 277 272 264 255 258 254 249 254 253 252 248 255 244 239 230 234 239 241 244 249
347 351 350 349 347 347 341 346 354 1 6 6 2 8 6 2 2 358 351 345 334 327 317 295 284 266 257 255 268 253 252 254 251 258 248 239 245 237 234 238 243 245 260
350 347 348 351 349 352 355 5 11 14 20 20 21 23 23 19 13 9 6 359 349 338 330 316 290 279 267 263 266 268 254 251 250 249 262 248 230 239 240 239 247 253 256
343 343 353 358 2 4 5 15 25 29 33 28 32 26 22 18 17 11 5 5 0 350 338 334 315 283 237 283 255 266 276 244 252 248 251 238 221 232 242 247 246 248 252
338 347 357 6 8 17 27 33 34 37 41 40 34 30 27 26 24 20 18 16 10 4 355 340 321 311 239 252 284 283 259 249 249 262 244 251 227 231 243 250 251 247 246
350 357 10 13 31 34 36 50 50 52 48 40 39 36 28 29 24 25 23 23 23 10 0 356 342 349 294 268 288 283 254 250 241 248 279 266 238 243 238 243 248 247 247
359 13 21 38 42 45 51 58 56 53 52 50 46 41 38 33 29 27 23 21 21 19 17 21 11 19 4 339 314 277 268 257 273 279 263 266 275 267 250 246 242 246 246
14 27 45 56 59 63 57 63 59 51 49 44 42 40 41 39 35 31 32 26 25 23 20 24 25 8 9 20 0 284 268 271 277 282 268 265 265 248 271 284 248 243 247
36 50 67 77 81 70 70 71 68 60 53 48 44 41 38 35 34 30 25 27 23 24 22 27 24 1 344 347 342 341 323 305 296 288 267 275 274 279 269 263 254 254 248
100 77 86 96 96 92 80 69 63 64 61 55 48 42 38 35 33 32 28 24 23 29 32 26 22 17 10 12 11 2 352 334 331 338 304 287 283 274 260 259 257 258 270
179 137 121 118 110 99 82 82 73 58 53 49 44 37 32 29 28 26 26 22 21 22 26 26 27 24 17 9 360 33 51 57 29 356 336 310 319 325 321 290 284 248 255
180 154 133 125 113 108 95 69 55 46 41 41 39 37 35 33 33 32 31 27 22 21 21 24 23 27 27 27 26 17 5 345 351 350 349 345 347 344 337 332 299 290 266
177 156 143 132 118 101 80 61 45 40 41 43 43 42 42 42 42 42 41 39 35 32 30 27 25 24 27 39 46 53 9 353 340 326 340 341 347 348 341 335 330 315 296
178 165 155 141 122 103 84 67 47 49 49 49 44 47 50 49 46 43 41 39 38 38 36 33 30 30 30 28 28 48 62 23 4 319 329 334 344 343 341 343 336 330 323
178 172 165 152 134 116 96 78 55 50 58 59 57 52 52 50 46 42 41 40 38 38 38 36 33 33 33 34 33 26 19 17 10 353 335 341 339 341 346 342 341 336 330
182 178 173 164 153 138 106 75 63 62 64 68 68 62 56 51 46 42 38 36 36 36 36 35 36 34 35 36 33 31 28 23 5 359 343 342 340 342 340 337 338 342 338
Wind_Speed_850mb
25 29 27 28 27 27 27 29 29 31 30 32 34 37 30 28 26 29 33 36 34 33 32 30 30 28 28 30 28 28 34 33 26 19 24 26 27 21 16 17 17 17 14
29 29 30 30 30 30 30 31 31 32 33 34 36 38 37 37 35 30 29 37 39 38 38 37 34 31 33 34 36 32 32 39 40 32 32 28 23 20 20 19 17 15 18
24 28 32 35 37 39 38 38 37 37 36 37 37 40 41 42 43 42 37 30 40 41 42 43 41 38 32 36 37 40 35 34 35 37 31 27 22 20 19 9 14 17 16
25 29 35 40 42 44 44 44 44 41 40 40 40 41 42 45 47 49 50 48 39 38 44 46 47 45 39 38 39 35 36 34 33 34 29 23 22 24 20 20 20 23 21
27 33 41 46 48 49 47 46 45 44 43 42 40 41 43 45 48 51 54 55 55 50 42 46 48 48 48 41 39 37 36 34 29 32 28 25 23 26 27 26 24 31 29
32 38 43 47 46 43 39 36 35 35 36 38 42 44 42 46 51 53 56 60 62 60 57 47 47 49 52 50 44 41 43 42 39 38 35 33 34 31 33 33 29 29 34
35 41 44 45 43 41 41 41 40 40 41 42 42 41 43 45 45 49 53 58 63 66 63 56 49 50 50 54 53 51 47 48 52 48 44 43 42 40 38 39 35 30 35
39 41 41 41 42 43 42 41 42 42 43 43 45 47 44 39 41 47 52 54 59 63 67 67 68 57 50 52 55 59 56 49 46 52 51 49 45 46 44 43 36 31 36
37 37 39 41 42 42 43 44 44 44 42 40 42 46 51 52 50 44 45 54 60 64 68 69 70 72 60 53 53 56 57 57 48 43 47 51 49 49 48 45 41 42 35
34 38 37 37 38 39 42 43 41 40 41 43 45 48 51 53 54 57 55 49 51 61 66 72 68 72 69 64 55 52 53 54 49 44 42 45 47 51 51 47 44 46 42
34 38 39 38 37 37 36 33 31 32 33 34 37 39 41 45 50 53 56 57 57 50 59 65 69 63 61 63 57 55 53 52 50 46 36 39 42 51 50 53 48 42 41
36 37 36 34 32 30 26 22 24 29 30 33 37 37 42 49 53 57 55 54 52 51 46 47 46 52 56 62 39 60 53 55 53 51 50 36 45 51 50 48 45 43 43
35 32 31 30 30 27 26 26 29 31 32 41 41 41 50 53 52 58 62 59 54 50 47 37 32 32 31 42 45 40 55 55 56 52 47 55 50 55 58 55 48 50 50
28 27 27 29 27 26 26 28 29 31 35 44 46 49 56 61 68 60 54 61 58 50 44 27 20 17 21 18 40 51 36 60 47 49 43 51 51 53 58 62 57 52 54
22 23 25 25 24 24 27 28 31 38 37 44 44 51 56 61 67 63 61 58 58 55 44 31 16 8 14 21 17 25 31 31 43 45 36 47 41 45 51 59 65 58 56
19 19 20 20 22 24 26 30 38 39 42 41 47 51 53 58 60 62 63 58 57 54 47 43 26 16 12 26 26 26 33 34 38 39 32 34 43 47 54 65 65 58 57
16 18 14 17 22 23 28 34 40 44 45 50 53 52 56 62 56 57 59 58 55 49 39 38 33 24 28 22 24 20 24 32 40 49 60 54 41 67 67 62 71 63 59
13 15 14 18 21 25 27 32 35 39 43 46 49 52 54 55 55 55 54 54 54 54 45 29 19 22 22 20 14 11 21 28 31 27 27 49 40 37 48 54 68 68 64
8 13 13 16 19 22 28 33 36 37 41 45 48 50 50 47 49 51 51 49 47 44 42 38 34 29 31 24 21 16 12 22 29 35 38 40 39 43 44 53 73 71 64
3 8 12 16 18 21 24 26 29 37 45 46 47 47 47 48 48 48 47 48 48 46 44 36 33 31 32 33 28 25 14 14 13 13 18 25 21 38 38 41 52 66 62
7 7 12 17 18 17 19 25 30 35 36 37 39 39 40 42 43 44 46 45 48 51 53 50 47 48 43 40 30 18 20 11 13 12 19 27 35 39 32 24 23 45 54
14 17 22 24 26 23 22 24 28 28 31 33 34 36 39 42 43 45 46 48 46 45 46 49 52 52 53 53 47 30 25 18 29 21 31 36 46 47 44 43 46 37 48
21 26 27 25 24 20 20 22 21 21 23 26 35 40 45 45 48 50 51 51 50 51 54 55 54 53 52 48 50 35 19 18 52 27 43 53 55 56 56 53 46 44 43
29 31 26 22 19 16 16 14 11 16 27 39 39 38 38 43 47 49 51 51 50 50 52 55 55 55 53 55 48 39 20 21 25 26 46 59 60 63 61 57 58 56 48
36 32 26 19 17 13 9 12 15 23 30 31 29 30 39 45 48 50 51 50 51 52 51 49 49 51 52 50 49 47 48 43 50 27 32 60 65 60 65 58 62 58 55
41 36 28 22 17 12 9 14 17 20 23 23 27 33 41 45 47 49 51 52 52 52 53 53 51 52 53 52 49 48 49 45 42 41 56 67 66 70 58 54 57 52 42
Wind_Direction_850mb
342 346 343 341 339 331 325 318 313 306 301 294 291 290 289 279 292 295 290 291 288 283 283 282 279 274 256 257 261 249 239 240 236 237 241 263 271 265 230 194 183 175 175
339 335 336 336 333 327 323 317 313 307 300 296 291 290 289 283 277 280 290 278 284 280 276 278 279 280 256 258 255 257 247 241 241 247 247 260 262 242 206 195 191 177 188
331 331 333 332 331 327 323 318 313 308 302 295 291 288 285 281 277 275 270 280 276 281 274 272 273 276 265 253 264 256 249 243 235 231 235 243 249 222 200 218 191 211 211
329 330 331 331 329 326 323 318 315 312 306 300 295 290 285 282 278 276 274 270 270 277 275 269 268 269 270 254 257 248 244 244 230 235 231 223 234 218 201 204 206 217 220
326 331 330 330 329 327 326 324 321 317 317 314 305 296 289 283 278 274 270 267 264 263 265 270 263 264 264 262 254 248 246 232 228 229 232 234 235 226 213 224 223 220 221
327 327 331 327 324 322 319 318 317 321 321 318 318 316 305 295 290 283 278 274 269 264 262 260 265 260 257 256 255 251 246 244 241 239 237 237 238 235 229 227 233 225 219
325 328 325 326 331 339 347 348 344 342 336 333 325 319 315 311 303 293 285 278 275 274 266 260 260 263 254 256 252 251 252 250 248 249 246 241 240 238 238 239 235 236 221
326 325 327 337 346 350 350 344 344 341 339 334 331 331 329 325 314 301 293 285 277 273 273 269 255 253 252 250 253 253 247 251 249 247 243 240 238 239 239 237 231 239 228
321 328 341 345 347 349 347 348 347 345 343 344 345 345 342 341 335 325 308 294 285 276 267 265 264 254 254 250 248 255 255 255 246 254 245 238 237 234 236 235 236 243 245
330 339 343 350 354 352 352 351 349 346 345 344 339 335 335 334 334 332 327 314 293 282 276 268 260 256 256 251 246 251 255 254 257 253 253 240 235 229 234 238 241 249 247
341 348 353 352 350 348 349 347 342 342 341 338 337 338 341 342 337 329 325 320 317 306 283 277 272 264 255 258 254 249 254 253 252 248 255 244 239 230 234 239 241 244 249
347 351 350 349 347 347 341 346 354 1 6 6 2 8 6 2 2 358 351 345 334 327 317 295 284 266 257 255 268 253 252 254 251 258 248 239 245 237 234 238 243 245 260
350 347 348 351 349 352 355 5 11 14 20 20 21 23 23 19 13 9 6 359 349 338 330 316 290 279 267 263 266 268 254 251 250 249 262 248 230 239 240 239 247 253 256
343 343 353 358 2 4 5 15 25 29 33 28 32 26 22 18 17 11 5 5 0 350 338 334 315 283 237 283 255 266 276 244 252 248 251 238 221 232 242 247 246 248 252
338 347 357 6 8 17 27 33 34 37 41 40 34 30 27 26 24 20 18 16 10 4 355 340 321 311 239 252 284 283 259 249 249 262 244 251 227 231 243 250 251 247 246
350 357 10 13 31 34 36 50 50 52 48 40 39 36 28 29 24 25 23 23 23 10 0 356 342 349 294 268 288 283 254 250 241 248 279 266 238 243 238 243 248 247 247
359 13 21 38 42 45 51 58 56 53 52 50 46 41 38 33 29 27 23 21 21 19 17 21 11 19 4 339 314 277 268 257 273 279 263 266 275 267 250 246 242 246 246
14 27 45 56 59 63 57 63 59 51 49 44 42 40 41 39 35 31 32 26 25 23 20 24 25 8 9 20 0 284 268 271 277 282 268 265 265 248 271 284 248 243 247
36 50 67 77 81 70 70 71 68 60 53 48 44 41 38 35 34 30 25 27 23 24 22 27 24 1 344 347 342 341 323 305 296 288 267 275 274 279 269 263 254 254 248
100 77 86 96 96 92 80 69 63 64 61 55 48 42 38 35 33 32 28 24 23 29 32 26 22 17 10 12 11 2 352 334 331 338 304 287 283 274 260 259 257 258 270
179 137 121 118 110 99 82 82 73 58 53 49 44 37 32 29 28 26 26 22 21 22 26 26 27 24 17 9 360 33 51 57 29 356 336 310 319 325 321 290 284 248 255
180 154 133 125 113 108 95 69 55 46 41 41 39 37 35 33 33 32 31 27 22 21 21 24 23 27 27 27 26 17 5 345 351 350 349 345 347 344 337 332 299 290 266
177 156 143 132 118 101 80 61 45 40 41 43 43 42 42 42 42 42 41 39 35 32 30 27 25 24 27 39 46 53 9 353 340 326 340 341 347 348 341 335 330 315 296
178 165 155 141 122 103 84 67 47 49 49 49 44 47 50 49 46 43 41 39 38 38 36 33 30 30 30 28 28 48 62 23 4 319 329 334 344 343 341 343 336 330 323
178 172 165 152 134 116 96 78 55 50 58 59 57 52 52 50 46 42 41 40 38 38 38 36 33 33 33 34 33 26 19 17 10 353 335 341 339 341 346 342 341 336 330
182 178 173 164 153 138 106 75 63 62 64 68 68 62 56 51 46 42 38 36 36 36 36 35 36 34 35 36 33 31 28 23 5 359 343 342 340 342 340 337 338 342 338